{"data":{"norad_id":65463,"intl_designator":"2025-195F","name":"STARLINK-35111","alt_names":[],"object_type":"PAYLOAD","status":"ACTIVE","operator":null,"country":"US","launch_date":"2025-09-03","launch_site_code":"AFETR","launch_vehicle":null,"mission":null,"orbit_class":"UNKNOWN","rcs_meters":null,"size_class":null,"mass_kg":null,"dimensions":null,"purposes":["comms"],"wikipedia_slug":null,"has_3d_model":false,"image_url":null,"decayed_at":null,"tle_current":{"epoch":"2026-05-24T18:08:48.307488Z","epoch_age_seconds":102932,"freshness":"FRESH","line1":"1 65463U 25195F   26144.75611467  .00014082  00000+0  48657-3 0  9997","line2":"2 65463  53.1583 264.5868 0000965  87.4143 272.6969 15.30206930 41642","mean_motion":15.3020693,"eccentricity":9.65e-5,"inclination_deg":53.1583,"raan_deg":264.5868,"arg_perigee_deg":87.4143,"mean_anomaly_deg":272.6969,"bstar":0.00048657,"rev_number":4164,"period_min":94.104919522224,"perigee_km":474.5330312886,"apogee_km":475.85572424451,"semimajor_km":6853.3313777666,"source":"CELESTRAK","updated_at":"2026-05-25T13:38:20.812555Z"}}}